Weather in Luangpkhabang

Laos     19°53′13″N   102°08′07″E
temp.,
°C
wind,
m/s
gust,
m/s
humid.,
%
clouds,
%
prec.,
mm/h
press.,
hPa
HPBL,
m
12 april, mon
mon1201:00+21se008912 0.1 101415
04:00+20nne0092100 0.0 101316
07:00+21ene008664 0.1 1015122
10:00+30sw1249100 0.0 1015858
13:00+35sw1334100 0.0 10112379
16:00+32wnw123894 0.0 10081252
19:00+26ne116159 0.0 101012
22:00+24ese006871 0.0 101211
13 april, tue
tue1301:00+23s0074100 0.0 101111
04:00+22sse117890 0.0 101111
07:00+22wsw0178100 0.4 101366
10:00+31w1246100 0.1 1013857
13:00+34w2335100 0.1 10092283
16:00+33w1436100 0.0 10061731
19:00+24ssw1275100 0.1 101098
22:00+22sw1284100 0.3 101377
14 april, wed
wed1401:00+22sw0185100 0.3 101261
04:00+21nw0086100 0.0 101033
07:00+22wnw018197 0.1 1012149
10:00+31wsw124527 0.1 1012914
13:00+36w2331100 0.1 10082449
16:00+33nnw1335100 0.0 10041612
19:00+24ssw2378100 0.7 1008100
22:00+22sw1287100 0.2 101169
15 april, thu
thu1501:00+21ssw0191100 0.4 101034
04:00+20wsw0094100 0.1 100915
07:00+21sw0188100 0.1 1011123
10:00+30wsw125188 0.0 1012856
13:00+36wsw1331100 0.0 10072434
16:00+33n1336100 0.0 10041664
19:00+26e1161100 0.1 100721
22:00+24s1170100 0.0 101015
16 april, fri
fri1601:00+22ssw1181100 0.1 101016
04:00+21ssw0084100 0.0 100912
07:00+22e0179100 0.2 1011112
10:00+32sw1244100 0.0 10111150
13:00+37wnw222996 0.0 10073211
16:00+29s1254100 0.5 1006382
19:00+24ssw0174100 0.6 100926
22:00+21e0191100 1.4 101324